Simultaneous Nadir Overpasses (SNOs) Predictions

Prediction of SNOs between METOP-B and TERRA Satellite Orbit:

Table of predicted SNOs for the next 14.0 days since TLE Epoch: 11/4/2023
Index Date (METOP-B) Time (METOP-B) Lat,Lon (METOP-B) SZA (METOP-B ) Date (TERRA) Time (TERRA) Lat,Lon (TERRA) SZA (TERRA ) Distance(km) Time Diff (sec)
1 11/05/2023 14:49:54 -80.56, 165.09 82.42 11/05/2023 14:50:54 -80.56, 165.21 82.39 2.23 60
2 11/05/2023 15:40:29 80.68, -25.75 97.86 11/05/2023 15:40:11 80.68, -25.89 97.84 2.61 18
3 11/08/2023 06:10:51 80.55, 114.75 98.35 11/08/2023 06:11:56 80.55, 114.84 98.38 1.53 65
4 11/08/2023 07:01:28 -80.65, -76.53 81.44 11/08/2023 07:01:16 -80.64, -76.57 81.45 0.93 12
5 11/10/2023 21:31:48 -80.56, 64.60 80.89 11/10/2023 21:32:59 -80.55, 64.59 80.87 0.33 71
6 11/10/2023 22:22:25 80.64,-126.95 99.28 11/10/2023 22:22:17 80.64,-126.86 99.29 1.72 8
7 11/13/2023 12:53:33 79.07, 0.16 97.46 11/13/2023 12:54:46 78.81, 1.58 97.32 41.49 73
8 11/13/2023 13:43:23 -80.61,-177.51 80.06 11/13/2023 13:43:20 -80.62,-177.36 80.04 2.88 3



Historial Predications of SNOs between METOP-B and TERRA
